683  
ASUS41 KOKX 051314  
RWROKX  
 
REGIONAL WEATHER ROUNDUP  
NATIONAL WEATHER SERVICE NEW YORK NY  
900 AM EDT TUE JUL 05 2022  
 
NOTE: "FAIR" INDICATES FEW OR NO CLOUDS BELOW 12,000 FEET WITH NO  
SIGNIFICANT WEATHER AND/OR S TO VISIBILITY
.  
 
NYZ071-072-176-178-NJZ106-104-051400-  
NEW YORK CITY METRO AREA  
 
CITY SKY/WX TMP DP RH WIND PRES REMARKS
 
CENTRAL PARK MOSUNNY 76 57 51 VRB6 30.12S  
WORLD TRD CTR NOT AVBL  
BRONX LEHMAN C N/A 77 55 47 SW7 N/A  
LAGUARDIA ARPT PTSUNNY 79 55 43 SW9 30.08F  
QUEENS COLLEGE N/A 77 57 50 SW8 N/A  
KENNEDY INTL PTSUNNY 76 61 59 SW10 30.10F  
BREEZY POINT N/A 72 N/A N/A SW5 N/A  
BROOKLYN COLL N/A N/A N/A N/A SW7 N/A  
STATEN ISLAND N/A 75 63 64 SW7 N/A  
NEWARK/LIBERTY PTSUNNY 81 60 48 SW9 30.08F  
TETERBORO PTSUNNY 78 58 49 S8 30.07F  

 
 
NYZ177-179-078>081-051400-  
LONG ISLAND NEW YORK  
 
CITY SKY/WX TMP DP RH WIND PRES REMARKS
 
JONES BEACH N/A 72 N/A N/A SW3 N/A  
WANTAGH N/A 73 63 68 S9 N/A  
HEMPSTEAD NOT AVBL  
MATINECOCK PT NOT AVBL  
FARMINGDALE MOSUNNY 76 61 59 SW8 30.10F  
MACARTHUR/ISP PTSUNNY 75 63 66 SW8 30.09F  
STONY BROOK N/A 75 61 60 SW2 N/A  
SHIRLEY MOSUNNY 76 63 64 S9 30.10S  
MT SINAI HARB N/A 75 N/A N/A SW5 N/A  
WESTHAMPTON MOSUNNY 74 65 73 SW9 30.11F  
EAST HAMPTON FAIR 73 69 87 SW9 30.09F  
SOUTHOLD N/A 75 64 69 SW5 N/A  
MONTAUK N/A 71 67 87 SW6 30.11F  

 
 
NYZ052-065-067-051400-  
HUDSON VALLEY  
 
CITY SKY/WX TMP DP RH WIND PRES REMARKS
 
WHITE PLAINS MOSUNNY 76 60 57 CALM 30.09F  
LARCHMONT HARB N/A 72 N/A N/A S7 N/A  
CROTON ON HUDS N/A 73 N/A N/A SE3 N/A  
SOMERS N/A 72 61 68 S3 N/A  
BREWSTER N/A N/A N/A N/A S2 N/A  
NEWBURGH CLOUDY 68 59 73 CALM 30.08F  
MONTGOMERY CLOUDY 71 60 68 SW8 30.07F  
OTISVILLE N/A 70 59 68 SW2 N/A  
WARWICK N/A 75 61 60 S3 N/A  
SUFFERN N/A 73 59 60 S2 N/A  
POUGHKEEPSIE CLOUDY 71 62 73 CALM 30.06F  
ALBANY LGT RAIN 69 56 62 CALM 30.05F  

 
 
NJZ001-105-106-008-010-013-015-019>022-104-051400-  
NEW JERSEY  
 
CITY SKY/WX TMP DP RH WIND PRES REMARKS
 
NEWARK/LIBERTY PTSUNNY 81 60 48 SW9 30.08F  
TETERBORO PTSUNNY 78 58 49 S8 30.07F  
CALDWELL PTSUNNY 75 57 53 VRB5 30.09F  
SOMERVILLE SUNNY 76 63 64 CALM 30.08F  
LINDEN FAIR 75 60 58 W5 30.10S  
PERTH AMBOY N/A 73 N/A N/A SW7 N/A  
SUSSEX PTSUNNY 71 61 70 SW6 30.09F  
ANDOVER N/A 77 60 55 VRB6 30.09F  
TRENTON MOSUNNY 76 67 73 SW7 30.09F  
MILLVILLE MOSUNNY 76 68 76 S6 30.11F  
ATLANTIC CITY MOSUNNY 76 65 68 S7 30.12F  
WRIGHTSTOWN MOSUNNY 78 64 62 SW9 30.10F  
TOMS RIVER NOT AVBL  
BELMAR MOSUNNY 74 68 81 SW8 30.12F  

 
 
PAZ047>061-062-071-051400-  
EASTERN PENNSYLVANIA  
 
CITY SKY/WX TMP DP RH WIND PRES REMARKS
 
PHILADELPHIA PTSUNNY 78 68 71 S6 30.09F  
ALLENTOWN MOSUNNY 76 61 59 SW7 30.08F  
SCRANTON MOSUNNY 78 60 53 SW7 30.07F  

 
 
CTZ002-004>006-009-010-012-RIZ004-006-007-MAZ004-011-015-051400-  
SOUTHERN NEW ENGLAND  
 
IN CT  
 
CITY SKY/WX TMP DP RH WIND PRES REMARKS
 
BRADLEY INTL CLOUDY 69 58 67 S3 30.08F  
HARTFORD CLOUDY 70 62 76 SE3 30.08F  
DANBURY PTSUNNY 75 59 57 VRB3 30.10F  
WTRBURY/OXFORD PTSUNNY 68 59 73 CALM 30.11F  
NORWALK HARBOR N/A 68 N/A N/A SW3 N/A  
BRIDGEPORT PTSUNNY 74 61 63 SW8 30.08F  
MERIDEN CLOUDY 70 60 70 CALM 30.09S  
NEW HAVEN PTSUNNY 75 65 70 VRB5 30.09F  
CHESTER FAIR 72 64 78 S6 30.10S  
GROTON CLOUDY 72 66 81 SW6 30.08F  
WILLIMANTIC CLOUDY 64 60 87 CALM 30.09F  
 
IN RI  
 
CITY SKY/WX TMP DP RH WIND PRES REMARKS
 
PROVIDENCE CLOUDY 70 62 76 S3 30.09F  
BLOCK ISLAND CLOUDY 68 64 87 SW13 30.11F  
WESTERLY CLOUDY 70 65 84 S5 30.09F  
 
IN MA  
 
CITY SKY/WX TMP DP RH WIND PRES REMARKS
 
BOSTON PTSUNNY 75 53 46 SW5 30.07F  
WORCESTER CLOUDY 68 56 65 SW3 30.10F  
WESTFIELD CLOUDY 66 57 72 SE3 30.08F  
PROVINCETOWN PTSUNNY 72 62 71 SW8 30.09F  
NANTUCKET PTSUNNY 72 67 84 SW13 30.11F  

 
 
ANZ330-335-338-340-345-350-353-355-051400-  
COASTAL MARINE OBSERVATIONS  
 
 
STATION/POSITION TIME SKY/WX TEMP WIND PRES VSBY WAVE
 
AIR SEA DIR/SP/G HT/PER  
(UTC) (F) (DEG/KT/KT) (MB) (MI) (FT/S)  
NY HARB ENTRANCE 1250 71 210/ 10/ 14 1018.6 2/ 8  
20 S FIRE ISLAND 1250 71 1019.1 3/ 8  
GREAT SOUTH BAY 1230 73 230/ 12/ 14 N/A  
23 SSW MONTAUK P 1250 70 220/ 12/ 14 1019.8 3/10  
15 E BARNEGAT LI 1226 71 N/A 2/10  
HUDSON CANYON 1250 72 72 210/ 8/ 10 1020.2 3/ 8  
KINGS POINT 1230 74 67 230/ 7/ 8 1019.8  
EXECUTION ROCKS 1230 72 190/ 8 N/A  
WESTERN LI SOUND 1230 83 240/ 4/ 4 N/A  
CENTRAL LI SOUND NOT AVBL  
ROBBINS REEF 1230 73 250/ 6/ 7 1019.1  

 
 
>>>>>>>>>>>>>>>>>>>>>>>>>>>> KEY <<<<<<<<<<<<<<<<<<<<<<<<<<<  
> <  
> SKY/WX - SKY CONDITION/PRESENT WEATHER <  
> TMP - TEMPERATURE IN FAHRENHEIT <  
> DP - DEW POINT IN FAHRENHEIT <  
> RH - RELATIVE HUMIDITY IN PERCENT <  
> WIND - DIRECTION (FROM) AND SPEED IN MPH <  
> PRES - MEAN SEA LEVEL PRESSURE (INCHES OF HG) <  
> WCI - WIND CHILL INDEX <  
> VSB - VISIBILITY IN MILES <  
> HX - HEAT INDEX <  
> TC - TEMPERATURE IN CELSIUS <  
> VRB - VARIABLE WIND DIRECTION <  
> <  
>>>>>>>>>>>>>>>>>>>>>>>>>>>> KEY <<<<<<<<<<<<<<<<<<<<<<<<<<<  
 
 
CLICK HERE TO GO TO PREVIOUS BULLETINS.

The Nexlab NY Page
The Nexlab NJ Page
The Nexlab CT Page Main Text Page